Regional Weather Roundup
Issued by NWS State College, PA

Home | Current Version | Previous Version | Text Only | Print | Product List | Glossary On
Versions: 1 2 3 4 5 6 7 8 9 10 11 12 13 14 15 16 17 18 19 20 21 22 23 24 25 26 27 28 29 30 31 32 33 34 35 36 37 38 39 40 41 42 43 44 45 46 47 48 49 50
000
ASUS41 KCTP 210510
RWRCTP

REGIONAL WEATHER ROUNDUP
NATIONAL WEATHER SERVICE STATE COLLEGE PA
1200 AM EST SAT JAN 21 2017

Note: "fair" indicates few or no clouds below 12,000 feet with no
significant weather and/or obstructions to visibility.

* = STATION THAT DOES NOT REPORT PRECIPITATION /E.G. RAIN...SNOW...ETC/
    THUNDER OR FOG.

PAZ002>004-007>009-013>016-020>023-029>032-210600-
WESTERN PENNSYLVANIA

CITY           SKY/WX    TMP DP  RH WIND       PRES   REMARKS
ERIE           FOG       46  45  96 SW3       29.80S VSB 1
MEADVILLE      FOG       49  47  93 SW3       29.80S VSB 1/2
FRANKLIN*        N/A     46  45  93 S3        29.82R VSB 1/4
NEW CASTLE     FAIR      44  44 100 CALM      29.82R FOG
BEAVER COUNTY  NOT AVBL
BUTLER*        CLOUDY    48  46  93 S6        29.85R
PITTSBURGH INT PTCLDY    49  48  97 CALM      29.82R
PITTSBURGH     CLEAR     51  47  86 S7        29.82R
INDIANA*       CLOUDY    48  48 100 CALM      29.85S FOG
LATROBE        MOCLDY    45  45 100 CALM      29.84S FOG
WASHINGTON CO* MOCLDY    43  41  93 CALM      29.83S VSB 1/4
$$

PAZ004>006-010>012-017>019-024>028-033>037-041-042-045-046-049>053-210600-
CENTRAL PENNSYLVANIA

CITY           SKY/WX    TMP DP  RH WIND       PRES   REMARKS
BRADFORD       FOG       45  45 100 SW3       29.80R VSB 1/4
DUBOIS         FOG       46  43  89 SW3       29.80S VSB 1/4
CLEARFIELD     FOG       38  38 100 N3        29.83S VSB 1/2
JOHNSTOWN      CLOUDY    49  47  93 SW5       29.82S
ALTOONA        FOG       41  40  96 CALM      29.85S VSB 1/2
STATE COLLEGE  CLOUDY    39  38  99 SW3       29.85F FOG
WILLIAMSPORT   CLOUDY    40  37  89 E6        29.88S FOG
SELINSGROVE    FOG       39  39 100 CALM      29.90S VSB 3/4
FT INDIANTOWN  FOG       37  37 100 CALM      29.90S VSB 3/4
CAPITAL CITY   FOG       40  38  93 E3        29.90S VSB 1/2
HARRISBURG     FOG       39  39 100 CALM      29.90R VSB 1/4
YORK           FOG       42  42 100 CALM      29.89S VSB 1/2
$$

PAZ038>040-043-044-047-048-054-055-060>062-067>071-210600-
EASTERN PENNSYLVANIA

CITY           SKY/WX    TMP DP  RH WIND       PRES   REMARKS
SCRANTON       CLOUDY    38  38 100 CALM      29.87S FOG
MOUNT POCONO   FOG       35  33  92 W5        29.85S VSB 1
ALLENTOWN      CLOUDY    40  38  93 CALM      29.92S FOG
QUAKERTOWN*    CLOUDY    37  37 100 CALM      29.92S VSB 1/2
READING        FOG       39  39 100 CALM      29.90F VSB 1/2
LANCASTER      FOG       41  41 100 E5        29.89F VSB 1/4
COATESVILLE    FOG       41  41 100 CALM      29.91F VSB 1/4
POTTSTOWN      FOG       39  39 100 CALM      29.93S VSB 1/2
BLUE BELL      CLOUDY    37  37 100 CALM      29.91S VSB 1/2
DOYLESTOWN     CLOUDY    41  40  96 CALM      29.91F FOG
WILLOW GROVE   NOT AVBL
NORTH PHILA    CLOUDY    43  41  93 CALM      29.94F FOG
PHILADELPHIA   CLOUDY    43  40  89 CALM      29.94S
$$




USA.gov is the U.S. government's official web portal to all federal, state and local government web resources and services.